Regional Weather Roundup
Issued by NWS Upton, NY

Home | Current Version | Previous Version | Text Only | Print | Product List | Glossary On
Versions: 1 2 3 4 5 6 7 8 9 10 11 12 13 14 15 16 17 18 19 20 21 22 23 24 25 26 27 28 29 30 31 32 33 34 35 36 37 38 39 40 41 42 43 44 45 46 47 48 49 50
000
ASUS41 KOKX 090804
RWROKX

REGIONAL WEATHER ROUNDUP
NATIONAL WEATHER SERVICE NEW YORK NY
300 AM EST TUE FEB 09 2016

NOTE: "FAIR" INDICATES FEW OR NO CLOUDS BELOW 12,000 FEET WITH NO
SIGNIFICANT WEATHER AND/OR OBSTRUCTIONS TO VISIBILITY.

NYZ071-072-176-178-NJZ106-104-090900-
NEW YORK CITY METRO AREA


CITY           SKY/WX    TMP DP  RH WIND       PRES   REMARKS
CENTRAL PARK   CLOUDY    28  22  78 SE7       29.74F WCI  21
LAGUARDIA APRT FLURRIES  28  22  78 E8        29.73F WCI  20
KENNEDY INTL   FLURRIES  28  23  81 NE9       29.74F WCI  19
NEWARK/LIBERTY FLURRIES  29  24  82 E6        29.72F WCI  23
BRNX BOT. GARD   N/A     28  21  74 NE9       29.74F WCI  20
TETERBORO      FLURRIES  27  20  75 NE7       29.72F WCI  19
$$

NYZ177-179-078>081-090900-
LONG ISLAND NEW YORK

CITY           SKY/WX    TMP DP  RH WIND       PRES   REMARKS
FARMINGDALE    CLOUDY    27  22  81 NE6       29.73F WCI  20
ISLIP          CLOUDY    26  20  77 E5        29.71F WCI  20
SHIRLEY        FLURRIES  25  20  81 NE5       29.73F WCI  19
RIVERHEAD        N/A     27  19  74 E5        29.71F WCI  21
WESTHAMPTON    MIX PCPN  24  20  84 NE6       29.74F WCI  17
EAST HAMPTON   CLOUDY    24  19  83 NE3       29.73F
MONTAUK POINT    N/A     26  20  77 N7        29.73F WCI  18
$$

NYZ052-065-067-090900-
HUDSON VALLEY

CITY           SKY/WX    TMP DP  RH WIND       PRES   REMARKS
WHITE PLAINS   CLOUDY    23  19  85 NE6       29.71F WCI  16
NEWBURGH       LGT SNOW  23  21  93 E7        29.71F WCI  15
MONTGOMERY     LGT SNOW  25  21  85 NE6       29.70F FOG     WCI  18
POUGHKEEPSIE   LGT SNOW  26  21  81 CALM      29.73S
ALBANY         LGT SNOW  25  21  85 CALM      29.72F FOG
$$

NJZ001-105-106-008-010-013-015-019>022-104-090900-
NEW JERSEY

CITY           SKY/WX    TMP DP  RH WIND       PRES   REMARKS
NEWARK/LIBERTY FLURRIES  29  24  82 E6        29.72F WCI  23
TETERBORO      FLURRIES  27  20  75 NE7       29.72F WCI  19
CALDWELL       FLURRIES  27  22  81 E9        29.72F WCI  18
MORRISTOWN     LGT SNOW  27  23  86 NE5       29.72F WCI  21
SOMERVILLE     CLOUDY    29  25  85 E5        29.68F WCI  24
SUSSEX         LGT SNOW  26  22  84 NE5       29.68F FOG     WCI  20
ANDOVER          N/A     26  21  81 CALM      29.67F
TRENTON        CLOUDY    30  25  81 E10       29.67F WCI  21
MILLVILLE      CLOUDY    33  32  96 NE8       29.64F WCI  26
ATLANTIC CITY  FLURRIES  33  31  92 NE7       29.64F WCI  27
WRIGHTSTOWN    CLOUDY    30  30 100 NE8       29.65S WCI  23
TOMS RIVER     CLOUDY    30  28  93 E8        29.68S WCI  23
BELMAR         CLOUDY    30  23  74 NE9       29.68F WCI  22
$$

PAZ047>061-062-071-090900-
EASTERN PENNSYLVANIA

CITY           SKY/WX    TMP DP  RH WIND       PRES   REMARKS
PHILADELPHIA   CLOUDY    32  27  81 E8        29.67F WCI  25
ALLENTOWN      FLURRIES  30  24  78 E9        29.67S WCI  22
SCRANTON       CLOUDY    28  21  75 VRB6      29.60F WCI  22
$$

CTZ002-004>006-009-010-012-RIZ004-006-007-MAZ004-011-015-090900-
SOUTHERN NEW ENGLAND
 IN CT

CITY           SKY/WX    TMP DP  RH WIND       PRES   REMARKS
BRADLEY INTL   LGT SNOW  22  14  71 NE10      29.74F WCI  11
HARTFORD       LGT SNOW  23  18  81 N7        29.76F VSB 1   WCI  15
DANBURY        LGT SNOW  22  16  78 NE6       29.72F WCI  14
WTRBRY/OXFORD  CLOUDY    21  10  63 E7        29.70F WCI  13
BRIDGEPORT     FLURRIES  25  19  78 NE10      29.74F WCI  15
MERIDEN        FLURRIES  23  17  78 N6        29.74F WCI  16
NEW HAVEN      LGT SNOW  23  19  85 N6        29.74F FOG     WCI  16
CHESTER        FLURRIES  23  19  86 N8        29.72F WCI  14
GROTON         FLURRIES  22  18  85 N7        29.74F WCI  13
WILLIMANTIC    LGT SNOW  22  15  75 NE8       29.74F WCI  12

 IN RI

CITY           SKY/WX    TMP DP  RH WIND       PRES   REMARKS
PROVIDENCE     FLURRIES  21  15  78 N10       29.75F WCI  10
BLOCK ISLAND   CLOUDY    25  21  86 N13       29.70F WCI  13
WESTERLY       CLOUDY    22  16  78 N6        29.73F WCI  14

 IN MA

CITY           SKY/WX    TMP DP  RH WIND       PRES   REMARKS
BOSTON         FLURRIES  20  15  81 NW10      29.76F WCI   9
WORCESTER      CLOUDY    17  12  80 NE8       29.69F VSB 1   WCI   7
WESTFIELD      CLOUDY    22  16  78 NE5       29.74F WCI  16
PROVINCETOWN   MIX PCPN  29  26  89 N15G21    29.72F WCI  18
NANTUCKET      CLOUDY    32  26  78 N12       29.70S WCI  23
$$

ANZ330-335-338-340-345-350-353-355-090900-
COASTAL MARINE OBSERVATIONS


STATION/POSITION TIME  SKY/WX   TEMP    WIND        PRES    VSBY  WAVE
                                AIR SEA DIR/SP/G                  HT/PER
                 (UTC)          (F)     (DEG/KT/KT) (MB)    (MI)  (FT/S)
NY HARB ENTRANCE 0650            31 43   70/ 12/ 16 1006.2          9/13
4S FIRE IS       NOT AVBL
20S FIRE ISLAND  0650            31 45   60/ 12/ 16 1006.3          9/11
GREAT SOUTH BAY  NOT AVBL
23SW MTP         0750            29 46   40/ 14/ 17 1005.8         10/14
HUDSON CANYON    0650            36 49              1004.9         13/13
KINGS POINT      0700            26 38  110/  4/  7 1006.7
EXECUTION ROCKS  NOT AVBL
CENTRAL LI SOUND 0700            26      40/ 10/ 14   N/A           1/ 4
EASTERN LI SOUND 0700            25 42   20/ 10/ 14   N/A
ROBBINS REEF     0700            28      80/  9/ 11 1006.1
$$


>>>>>>>>>>>>>>>>>>>>>>>>>>>> KEY <<<<<<<<<<<<<<<<<<<<<<<<<<<
>                                                          <
>     SKY/WX - SKY CONDITION/PRESENT WEATHER               <
>     TMP    - TEMPERATURE IN FAHRENHEIT                   <
>     DP     - DEWPOINT IN FAHRENHEIT                      <
>     RH     - RELATIVE HUMIDITY IN PERCENT                <
>     WIND   - DIRECTION AND SPEED IN MPH                  <
>     PRES   - MEAN SEA LEVEL PRESSURE IN INCHES OF HG     <
>     WCI    - WIND CHILL INDEX                            <
>     VSB    - VISIBILITY IN MILES                         <
>     HX     - HEAT INDEX                                  <
>     TC     - TEMPERATURE IN CELSIUS                      <
>     VRB    - VARIABLE WIND DIRECTION                     <
>                                                          <
>>>>>>>>>>>>>>>>>>>>>>>>>>>> KEY <<<<<<<<<<<<<<<<<<<<<<<<<<<





USA.gov is the U.S. government's official web portal to all federal, state and local government web resources and services.